Terminal Aerodrome Forecast
Issued by NWS

Home | Current Version | Previous Version | Text Only | Print | Product List | Glossary On
Versions: 1 2 3 4 5 6 7 8 9 10 11 12
000
FTUS46 KSTO 232325
TAFRDD
TAF
KRDD 232325Z 2400/2424 16010KT P6SM SKC
     FM240600 VRB04KT P6SM SKC
     FM241800 17005KT P6SM SKC=

USA.gov is the U.S. government's official web portal to all federal, state and local government web resources and services.